Date String (YYYY-MM-DD hh:mm:ss) UTC,Instrument flags,absolute air pressure of the measurement (hPa),sample flow rate (lpm),inlet stack bypass flow (lpm),air temperature of the measurement (°C),ambient temperature measured by the external sensor (°C),aerosol sample conditioner tube jacket temperature (°C),OPC LED temperature (°C),internal box temperature (°C),relative humidity of the measurement (%),span deviation,mass concentration of particles derived from Lorenz-Mie calculation of OPC scattering (μg/m³),mass concentration of particles derived from Lorenz-Mie calculation of OPC scattering (μg/m³),mass concentration of particles derived from Lorenz-Mie calculation of OPC scattering (μg/m³)
DateTimeUTC,F1_M11,P_M11,Q1_M11,Q2_M11,T1_M11,T2_M11,T3_M11,T4_M11,T5_M11,U1_M11,ZSPAN_M11,X0_M11,X2_M11,X1_M11
2023-06-08 06:00:00,SystemResetWarning,0830.3,5.00,000.00,030.3,028.6,000.0,038.9,031.8,23.7,0000.0,0003.40,0002.13,0001.68
2023-06-08 06:01:00,SystemResetWarning,0830.2,5.00,000.00,030.3,028.6,000.0,038.9,031.8,23.7,0000.0,0004.32,0002.13,0001.70
2023-06-08 06:02:00,SystemResetWarning,0830.2,5.01,000.00,030.3,028.6,000.0,038.9,031.8,24.0,0000.0,0004.88,0002.22,0001.74
2023-06-08 06:03:00,SystemResetWarning,0830.3,5.00,000.00,030.3,028.6,000.0,038.9,031.8,24.0,0000.0,0005.08,0002.24,0001.76
2023-06-08 06:04:00,SystemResetWarning,0830.3,5.00,000.00,030.3,028.6,000.0,038.9,031.8,24.1,0000.0,0006.14,0002.25,0001.79
2023-06-08 06:05:00,SystemResetWarning,0830.2,4.99,000.00,030.3,028.6,000.0,038.9,031.7,23.6,0000.0,0006.76,0002.31,0001.84
2023-06-08 06:06:00,SystemResetWarning,0830.2,5.00,000.00,030.3,028.6,000.0,038.9,031.8,23.6,0000.0,0006.77,0002.31,0001.88
2023-06-08 06:07:00,SystemResetWarning,0830.2,5.00,000.00,030.3,028.6,000.0,038.9,031.8,23.6,0000.0,0007.07,0002.36,0001.90
2023-06-08 06:08:00,SystemResetWarning,0830.2,4.99,000.00,030.3,028.6,000.0,038.9,031.8,23.5,0000.0,0006.97,0002.32,0001.92
2023-06-08 06:09:00,SystemResetWarning,0830.3,5.00,000.00,030.3,028.6,000.0,038.9,031.8,23.5,0000.0,0007.18,0002.33,0001.92
2023-06-08 06:10:00,SystemResetWarning,0830.3,5.00,000.00,030.3,028.6,000.0,038.9,031.7,23.5,0000.0,0007.80,0002.39,0001.94
2023-06-08 06:11:00,SystemResetWarning,0830.2,5.01,000.00,030.3,028.6,000.0,038.9,031.8,23.5,0000.0,0007.80,0002.46,0001.97
2023-06-08 06:12:00,SystemResetWarning,0830.2,5.00,000.00,030.3,028.6,000.0,038.9,031.7,23.5,0000.0,0007.76,0002.54,0002.00
2023-06-08 06:13:00,SystemResetWarning,0830.2,5.00,000.00,030.3,028.6,000.0,038.9,031.7,23.5,0000.0,0007.66,0002.57,0002.01
2023-06-08 06:14:00,SystemResetWarning,0830.3,5.01,000.00,030.3,028.6,000.0,038.9,031.7,23.5,0000.0,0007.70,0002.62,0002.03
2023-06-08 06:15:00,SystemResetWarning,0830.2,5.00,000.00,030.3,028.6,000.0,038.9,031.7,23.5,0000.0,0007.29,0002.69,0002.04
2023-06-08 06:16:00,SystemResetWarning,0830.2,5.00,000.00,030.3,028.6,000.0,038.9,031.7,23.5,0000.0,0006.72,0002.67,0002.03
2023-06-08 06:17:00,SystemResetWarning,0830.3,5.00,000.00,030.3,028.6,000.0,038.9,031.7,23.6,0000.0,0006.53,0002.70,0002.02
2023-06-08 06:18:00,SystemResetWarning,0830.3,5.00,000.00,030.3,028.6,000.0,038.9,031.7,23.5,0000.0,0006.21,0002.70,0002.02
2023-06-08 06:19:00,SystemResetWarning,0830.3,5.00,000.00,030.3,028.6,000.0,038.9,031.7,23.5,0000.0,0006.26,0002.74,0002.03
2023-06-08 06:20:00,SystemResetWarning,0830.2,5.00,000.00,030.3,028.6,000.0,038.9,031.7,23.5,0000.0,0006.04,0002.73,0002.03
2023-06-08 06:21:00,SystemResetWarning,0830.2,5.00,000.00,030.3,028.5,000.0,038.9,031.7,23.5,0000.0,0005.06,0002.69,0002.02
2023-06-08 06:22:00,SystemResetWarning,0830.2,5.00,000.00,030.3,028.5,000.0,038.9,031.7,23.4,0000.0,0004.96,0002.67,0002.01
2023-06-08 06:23:00,SystemResetWarning,0830.2,5.00,000.00,030.3,028.5,000.0,038.9,031.7,23.4,0000.0,0004.63,0002.67,0002.02
2023-06-08 06:24:00,SystemResetWarning,0830.3,4.99,000.00,030.3,028.5,000.0,038.9,031.7,23.4,0000.0,0004.05,0002.69,0002.03
2023-06-08 06:25:00,SystemResetWarning,0830.2,4.99,000.00,030.3,028.5,000.0,038.9,031.7,23.3,0000.0,0004.23,0002.63,0002.02
2023-06-08 06:26:00,SystemResetWarning,0830.2,5.00,000.00,030.2,028.5,000.0,038.9,031.7,23.3,0000.0,0004.28,0002.60,0002.02
2023-06-08 06:27:00,SystemResetWarning,0830.2,4.99,000.00,030.2,028.5,000.0,038.9,031.7,23.3,0000.0,0004.79,0002.60,0002.02
2023-06-08 06:28:00,SystemResetWarning,0830.2,5.00,000.00,030.2,028.5,000.0,038.9,031.7,23.3,0000.0,0004.73,0002.58,0002.01
2023-06-08 06:29:00,SystemResetWarning,0830.2,5.00,000.00,030.2,028.5,000.0,038.8,031.7,23.2,0000.0,0004.80,0002.57,0002.01
2023-06-08 06:30:00,SystemResetWarning,0830.1,5.00,000.00,030.2,028.5,000.0,038.8,031.7,23.2,0000.0,0005.06,0002.55,0002.01
2023-06-08 06:31:00,SystemResetWarning,0830.1,5.00,000.00,030.2,028.5,000.0,038.8,031.7,23.2,0000.0,0005.19,0002.59,0002.00
2023-06-08 06:32:00,SystemResetWarning,0830.1,5.00,000.00,030.2,028.5,000.0,038.8,031.7,23.1,0000.0,0005.32,0002.62,0002.00
2023-06-08 06:33:00,SystemResetWarning,0830.1,5.00,000.00,030.2,028.5,000.0,038.8,031.7,23.1,0000.0,0005.32,0002.61,0002.00
2023-06-08 06:34:00,SystemResetWarning,0830.1,5.01,000.00,030.2,028.5,000.0,038.8,031.7,23.1,0000.0,0005.27,0002.58,0001.99
2023-06-08 06:35:00,SystemResetWarning,0830.1,4.99,000.00,030.2,028.5,000.0,038.8,031.7,23.1,0000.0,0005.37,0002.53,0001.98
2023-06-08 06:36:00,SystemResetWarning,0830.1,5.00,000.00,030.2,028.5,000.0,038.8,031.6,23.1,0000.0,0005.01,0002.52,0001.99
2023-06-08 06:37:00,SystemResetWarning,0830.1,5.00,000.00,030.2,028.5,000.0,038.8,031.7,23.1,0000.0,0004.91,0002.53,0001.99
2023-06-08 06:38:00,SystemResetWarning,0830.1,5.00,000.00,030.2,028.5,000.0,038.8,031.7,23.1,0000.0,0004.41,0002.51,0001.98
2023-06-08 06:39:00,SystemResetWarning,0830.1,5.00,000.00,030.2,028.5,000.0,038.8,031.6,23.1,0000.0,0004.57,0002.54,0001.98
2023-06-08 06:40:00,SystemResetWarning,0830.1,5.00,000.00,030.2,028.5,000.0,038.8,031.7,23.1,0000.0,0004.59,0002.56,0001.98
2023-06-08 06:41:00,SystemResetWarning,0830.1,5.00,000.00,030.2,028.5,000.0,038.8,031.7,23.1,0000.0,0004.42,0002.56,0001.98
2023-06-08 06:42:00,SystemResetWarning,0830.0,5.00,000.00,030.2,028.5,000.0,038.8,031.7,23.0,0000.0,0004.43,0002.55,0001.98
2023-06-08 06:43:00,SystemResetWarning,0830.0,5.00,000.00,030.2,028.5,000.0,038.8,031.7,23.0,0000.0,0004.44,0002.50,0001.96
2023-06-08 06:44:00,SystemResetWarning,0830.0,5.00,000.00,030.2,028.5,000.0,038.8,031.6,23.0,0000.0,0004.35,0002.46,0001.96
2023-06-08 06:45:00,SystemResetWarning,0830.1,4.99,000.00,030.2,028.5,000.0,038.8,031.6,23.0,0000.0,0004.42,0002.43,0001.95
2023-06-08 06:46:00,SystemResetWarning,0830.0,4.99,000.00,030.2,028.5,000.0,038.8,031.6,23.0,0000.0,0004.81,0002.45,0001.95
2023-06-08 06:47:00,SystemResetWarning,0830.0,5.00,000.00,030.2,028.5,000.0,038.8,031.6,22.9,0000.0,0004.85,0002.45,0001.92
2023-06-08 06:48:00,SystemResetWarning,0830.0,5.00,000.00,030.2,028.5,000.0,038.8,031.6,22.9,0000.0,0004.80,0002.43,0001.92
2023-06-08 06:49:00,SystemResetWarning,0830.0,5.01,000.00,030.2,028.4,000.0,038.8,031.6,22.9,0000.0,0004.77,0002.42,0001.91
2023-06-08 06:50:00,SystemResetWarning,0830.0,5.00,000.00,030.2,028.4,000.0,038.8,031.6,22.9,0000.0,0004.71,0002.42,0001.91
2023-06-08 06:51:00,SystemResetWarning,0830.0,5.00,000.00,030.2,028.4,000.0,038.8,031.6,22.9,0000.0,0004.74,0002.42,0001.89
2023-06-08 06:52:00,SystemResetWarning,0830.0,5.00,000.00,030.2,028.4,000.0,038.8,031.6,22.9,0000.0,0004.77,0002.44,0001.89
2023-06-08 06:53:00,SystemResetWarning,0830.0,5.01,000.00,030.2,028.4,000.0,038.8,031.6,22.9,0000.0,0004.61,0002.45,0001.90
2023-06-08 06:54:00,SystemResetWarning,0830.0,4.98,000.00,030.2,028.4,000.0,038.8,031.6,22.9,0000.0,0004.54,0002.44,0001.89
2023-06-08 06:55:00,SystemResetWarning,0830.0,5.02,000.00,030.2,028.4,000.0,038.8,031.6,22.9,0000.0,0004.75,0002.49,0001.89
2023-06-08 06:56:00,SystemResetWarning,0830.0,5.00,000.00,030.1,028.4,000.0,038.8,031.6,22.9,0000.0,0004.81,0002.54,0001.88
2023-06-08 06:57:00,SystemResetWarning,0830.0,4.98,000.00,030.2,028.4,000.0,038.8,031.6,23.0,0000.0,0004.43,0002.53,0001.88
2023-06-08 06:58:00,SystemResetWarning,0830.0,5.00,000.00,030.1,028.4,000.0,038.8,031.6,23.0,0000.0,0004.31,0002.50,0001.89
2023-06-08 06:59:00,SystemResetWarning,0830.0,5.01,000.00,030.1,028.4,000.0,038.8,031.6,23.0,0000.0,0004.24,0002.48,0001.89
